locationName,lineName,date,time,countIn,countOut
�����w�O,��������,2022/9/1,0:00,5,1
�����w�O,��������,2022/9/1,1:00,2,2
�����w�O,��������,2022/9/1,2:00,2,1
�����w�O,��������,2022/9/1,3:00,1,4
�����w�O,��������,2022/9/1,4:00,3,1
�����w�O,��������,2022/9/1,5:00,11,8
�����w�O,��������,2022/9/1,6:00,84,80
�����w�O,��������,2022/9/1,7:00,181,286
�����w�O,��������,2022/9/1,8:00,111,194
�����w�O,��������,2022/9/1,9:00,103,102
�����w�O,��������,2022/9/1,10:00,164,183
�����w�O,��������,2022/9/1,11:00,153,225
�����w�O,��������,2022/9/1,12:00,134,154
�����w�O,��������,2022/9/1,13:00,130,107
�����w�O,��������,2022/9/1,14:00,134,126
�����w�O,��������,2022/9/1,15:00,209,117
�����w�O,��������,2022/9/1,16:00,183,144
�����w�O,��������,2022/9/1,17:00,293,161
�����w�O,��������,2022/9/1,18:00,254,160
�����w�O,��������,2022/9/1,19:00,140,163
�����w�O,��������,2022/9/1,20:00,80,54
�����w�O,��������,2022/9/1,21:00,66,58
�����w�O,��������,2022/9/1,22:00,36,18
�����w�O,��������,2022/9/1,23:00,16,12
�����w�O,��������,2022/9/2,0:00,2,4
�����w�O,��������,2022/9/2,1:00,4,3
�����w�O,��������,2022/9/2,2:00,2,1
�����w�O,��������,2022/9/2,3:00,1,2
�����w�O,��������,2022/9/2,4:00,2,2
�����w�O,��������,2022/9/2,5:00,8,11
�����w�O,��������,2022/9/2,6:00,83,76
�����w�O,��������,2022/9/2,7:00,180,268
�����w�O,��������,2022/9/2,8:00,114,269
�����w�O,��������,2022/9/2,9:00,102,122
�����w�O,��������,2022/9/2,10:00,172,275
�����w�O,��������,2022/9/2,11:00,159,207
�����w�O,��������,2022/9/2,12:00,181,242
�����w�O,��������,2022/9/2,13:00,200,220
�����w�O,��������,2022/9/2,14:00,180,149
�����w�O,��������,2022/9/2,15:00,247,136
�����w�O,��������,2022/9/2,16:00,262,207
�����w�O,��������,2022/9/2,17:00,318,209
�����w�O,��������,2022/9/2,18:00,307,218
�����w�O,��������,2022/9/2,19:00,149,176
�����w�O,��������,2022/9/2,20:00,120,84
�����w�O,��������,2022/9/2,21:00,82,70
�����w�O,��������,2022/9/2,22:00,41,34
�����w�O,��������,2022/9/2,23:00,28,20
�����w�O,��������,2022/9/3,0:00,12,13
�����w�O,��������,2022/9/3,1:00,2,2
�����w�O,��������,2022/9/3,2:00,4,1
�����w�O,��������,2022/9/3,3:00,0,3
�����w�O,��������,2022/9/3,4:00,4,4
�����w�O,��������,2022/9/3,5:00,10,10
�����w�O,��������,2022/9/3,6:00,46,46
�����w�O,��������,2022/9/3,7:00,99,194
�����w�O,��������,2022/9/3,8:00,131,225
�����w�O,��������,2022/9/3,9:00,181,218
�����w�O,��������,2022/9/3,10:00,210,312
�����w�O,��������,2022/9/3,11:00,190,314
�����w�O,��������,2022/9/3,12:00,295,320
�����w�O,��������,2022/9/3,13:00,283,236
�����w�O,��������,2022/9/3,14:00,319,297
�����w�O,��������,2022/9/3,15:00,249,179
�����w�O,��������,2022/9/3,16:00,274,226
�����w�O,��������,2022/9/3,17:00,259,233
�����w�O,��������,2022/9/3,18:00,250,240
�����w�O,��������,2022/9/3,19:00,179,227
�����w�O,��������,2022/9/3,20:00,141,95
�����w�O,��������,2022/9/3,21:00,143,76
�����w�O,��������,2022/9/3,22:00,61,49
�����w�O,��������,2022/9/3,23:00,30,27
�����w�O,��������,2022/9/4,0:00,20,2
�����w�O,��������,2022/9/4,1:00,4,4
�����w�O,��������,2022/9/4,2:00,2,2
�����w�O,��������,2022/9/4,3:00,2,2
�����w�O,��������,2022/9/4,4:00,4,4
�����w�O,��������,2022/9/4,5:00,11,9
�����w�O,��������,2022/9/4,6:00,66,40
�����w�O,��������,2022/9/4,7:00,80,87
�����w�O,��������,2022/9/4,8:00,123,230
�����w�O,��������,2022/9/4,9:00,147,211
�����w�O,��������,2022/9/4,10:00,226,286
�����w�O,��������,2022/9/4,11:00,173,287
�����w�O,��������,2022/9/4,12:00,265,326
�����w�O,��������,2022/9/4,13:00,301,235
�����w�O,��������,2022/9/4,14:00,327,258
�����w�O,��������,2022/9/4,15:00,318,226
�����w�O,��������,2022/9/4,16:00,331,225
�����w�O,��������,2022/9/4,17:00,280,235
�����w�O,��������,2022/9/4,18:00,189,162
�����w�O,��������,2022/9/4,19:00,184,190
�����w�O,��������,2022/9/4,20:00,109,94
�����w�O,��������,2022/9/4,21:00,70,59
�����w�O,��������,2022/9/4,22:00,38,48
�����w�O,��������,2022/9/4,23:00,6,5
�����w�O,��������,2022/9/5,0:00,12,9
�����w�O,��������,2022/9/5,1:00,1,0
�����w�O,��������,2022/9/5,2:00,1,1
�����w�O,��������,2022/9/5,3:00,0,0
�����w�O,��������,2022/9/5,4:00,5,2
�����w�O,��������,2022/9/5,5:00,13,12
�����w�O,��������,2022/9/5,6:00,74,61
�����w�O,��������,2022/9/5,7:00,197,334
�����w�O,��������,2022/9/5,8:00,97,293
�����w�O,��������,2022/9/5,9:00,125,116
�����w�O,��������,2022/9/5,10:00,221,231
�����w�O,��������,2022/9/5,11:00,183,254
�����w�O,��������,2022/9/5,12:00,225,350
�����w�O,��������,2022/9/5,13:00,197,143
�����w�O,��������,2022/9/5,14:00,208,193
�����w�O,��������,2022/9/5,15:00,266,268
�����w�O,��������,2022/9/5,16:00,291,195
�����w�O,��������,2022/9/5,17:00,323,237
�����w�O,��������,2022/9/5,18:00,277,165
�����w�O,��������,2022/9/5,19:00,151,188
�����w�O,��������,2022/9/5,20:00,69,67
�����w�O,��������,2022/9/5,21:00,57,69
�����w�O,��������,2022/9/5,22:00,34,19
�����w�O,��������,2022/9/5,23:00,6,10
�����w�O,��������,2022/9/6,0:00,4,1
�����w�O,��������,2022/9/6,1:00,4,2
�����w�O,��������,2022/9/6,2:00,1,1
�����w�O,��������,2022/9/6,3:00,1,2
�����w�O,��������,2022/9/6,4:00,3,0
�����w�O,��������,2022/9/6,5:00,7,5
�����w�O,��������,2022/9/6,6:00,65,45
�����w�O,��������,2022/9/6,7:00,140,324
�����w�O,��������,2022/9/6,8:00,73,187
�����w�O,��������,2022/9/6,9:00,75,103
�����w�O,��������,2022/9/6,10:00,127,153
�����w�O,��������,2022/9/6,11:00,161,190
�����w�O,��������,2022/9/6,12:00,137,186
�����w�O,��������,2022/9/6,13:00,168,142
�����w�O,��������,2022/9/6,14:00,154,165
�����w�O,��������,2022/9/6,15:00,217,128
�����w�O,��������,2022/9/6,16:00,223,162
�����w�O,��������,2022/9/6,17:00,286,167
�����w�O,��������,2022/9/6,18:00,295,191
�����w�O,��������,2022/9/6,19:00,167,170
�����w�O,��������,2022/9/6,20:00,83,95
�����w�O,��������,2022/9/6,21:00,75,72
�����w�O,��������,2022/9/6,22:00,32,16
�����w�O,��������,2022/9/6,23:00,17,15
�����w�O,��������,2022/9/7,0:00,7,2
�����w�O,��������,2022/9/7,1:00,4,1
�����w�O,��������,2022/9/7,2:00,0,1
�����w�O,��������,2022/9/7,3:00,2,1
�����w�O,��������,2022/9/7,4:00,6,0
�����w�O,��������,2022/9/7,5:00,12,9
�����w�O,��������,2022/9/7,6:00,85,78
�����w�O,��������,2022/9/7,7:00,223,346
�����w�O,��������,2022/9/7,8:00,245,375
�����w�O,��������,2022/9/7,9:00,160,217
�����w�O,��������,2022/9/7,10:00,137,209
�����w�O,��������,2022/9/7,11:00,219,353
�����w�O,��������,2022/9/7,12:00,214,317
�����w�O,��������,2022/9/7,13:00,157,183
�����w�O,��������,2022/9/7,14:00,186,155
�����w�O,��������,2022/9/7,15:00,259,161
�����w�O,��������,2022/9/7,16:00,320,181
�����w�O,��������,2022/9/7,17:00,374,240
�����w�O,��������,2022/9/7,18:00,259,234
�����w�O,��������,2022/9/7,19:00,188,201
�����w�O,��������,2022/9/7,20:00,234,229
�����w�O,��������,2022/9/7,21:00,95,78
�����w�O,��������,2022/9/7,22:00,42,31
�����w�O,��������,2022/9/7,23:00,19,11
�����w�O,��������,2022/9/8,0:00,6,4
�����w�O,��������,2022/9/8,1:00,0,1
�����w�O,��������,2022/9/8,2:00,1,1
�����w�O,��������,2022/9/8,3:00,0,1
�����w�O,��������,2022/9/8,4:00,5,2
�����w�O,��������,2022/9/8,5:00,14,12
�����w�O,��������,2022/9/8,6:00,89,66
�����w�O,��������,2022/9/8,7:00,197,354
�����w�O,��������,2022/9/8,8:00,133,275
�����w�O,��������,2022/9/8,9:00,220,397
�����w�O,��������,2022/9/8,10:00,193,205
�����w�O,��������,2022/9/8,11:00,179,271
�����w�O,��������,2022/9/8,12:00,180,241
�����w�O,��������,2022/9/8,13:00,183,163
�����w�O,��������,2022/9/8,14:00,220,194
�����w�O,��������,2022/9/8,15:00,338,302
�����w�O,��������,2022/9/8,16:00,371,352
�����w�O,��������,2022/9/8,17:00,352,210
�����w�O,��������,2022/9/8,18:00,306,211
�����w�O,��������,2022/9/8,19:00,170,198
�����w�O,��������,2022/9/8,20:00,109,95
�����w�O,��������,2022/9/8,21:00,103,85
�����w�O,��������,2022/9/8,22:00,40,28
�����w�O,��������,2022/9/8,23:00,14,6
�����w�O,��������,2022/9/9,0:00,7,6
�����w�O,��������,2022/9/9,1:00,2,1
�����w�O,��������,2022/9/9,2:00,1,0
�����w�O,��������,2022/9/9,3:00,0,2
�����w�O,��������,2022/9/9,4:00,6,2
�����w�O,��������,2022/9/9,5:00,13,15
�����w�O,��������,2022/9/9,6:00,83,76
�����w�O,��������,2022/9/9,7:00,188,213
�����w�O,��������,2022/9/9,8:00,108,206
�����w�O,��������,2022/9/9,9:00,160,177
�����w�O,��������,2022/9/9,10:00,176,266
�����w�O,��������,2022/9/9,11:00,197,320
�����w�O,��������,2022/9/9,12:00,247,315
�����w�O,��������,2022/9/9,13:00,234,225
�����w�O,��������,2022/9/9,14:00,252,209
�����w�O,��������,2022/9/9,15:00,325,262
�����w�O,��������,2022/9/9,16:00,291,214
�����w�O,��������,2022/9/9,17:00,333,237
�����w�O,��������,2022/9/9,18:00,340,260
�����w�O,��������,2022/9/9,19:00,156,237
�����w�O,��������,2022/9/9,20:00,131,120
�����w�O,��������,2022/9/9,21:00,114,89
�����w�O,��������,2022/9/9,22:00,67,43
�����w�O,��������,2022/9/9,23:00,33,22
�����w�O,��������,2022/9/10,0:00,11,2
�����w�O,��������,2022/9/10,1:00,10,8
�����w�O,��������,2022/9/10,2:00,3,2
�����w�O,��������,2022/9/10,3:00,8,3
�����w�O,��������,2022/9/10,4:00,7,5
�����w�O,��������,2022/9/10,5:00,16,27
�����w�O,��������,2022/9/10,6:00,77,69
�����w�O,��������,2022/9/10,7:00,96,134
�����w�O,��������,2022/9/10,8:00,152,248
�����w�O,��������,2022/9/10,9:00,374,576
�����w�O,��������,2022/9/10,10:00,314,423
�����w�O,��������,2022/9/10,11:00,331,528
�����w�O,��������,2022/9/10,12:00,342,415
�����w�O,��������,2022/9/10,13:00,331,267
�����w�O,��������,2022/9/10,14:00,358,275
�����w�O,��������,2022/9/10,15:00,405,287
�����w�O,��������,2022/9/10,16:00,388,315
�����w�O,��������,2022/9/10,17:00,366,274
�����w�O,��������,2022/9/10,18:00,356,350
�����w�O,��������,2022/9/10,19:00,248,182
�����w�O,��������,2022/9/10,20:00,206,139
�����w�O,��������,2022/9/10,21:00,114,71
�����w�O,��������,2022/9/10,22:00,86,39
�����w�O,��������,2022/9/10,23:00,18,16
�����w�O,��������,2022/9/11,0:00,7,3
�����w�O,��������,2022/9/11,1:00,2,0
�����w�O,��������,2022/9/11,2:00,3,1
�����w�O,��������,2022/9/11,3:00,0,0
�����w�O,��������,2022/9/11,4:00,5,5
�����w�O,��������,2022/9/11,5:00,12,21
�����w�O,��������,2022/9/11,6:00,39,25
�����w�O,��������,2022/9/11,7:00,74,70
�����w�O,��������,2022/9/11,8:00,101,126
�����w�O,��������,2022/9/11,9:00,199,215
�����w�O,��������,2022/9/11,10:00,220,333
�����w�O,��������,2022/9/11,11:00,276,412
�����w�O,��������,2022/9/11,12:00,282,298
�����w�O,��������,2022/9/11,13:00,275,232
�����w�O,��������,2022/9/11,14:00,308,279
�����w�O,��������,2022/9/11,15:00,308,196
�����w�O,��������,2022/9/11,16:00,288,215
�����w�O,��������,2022/9/11,17:00,277,204
�����w�O,��������,2022/9/11,18:00,225,232
�����w�O,��������,2022/9/11,19:00,141,168
�����w�O,��������,2022/9/11,20:00,100,74
�����w�O,��������,2022/9/11,21:00,69,58
�����w�O,��������,2022/9/11,22:00,53,39
�����w�O,��������,2022/9/11,23:00,19,7
�����w�O,��������,2022/9/12,0:00,12,0
�����w�O,��������,2022/9/12,1:00,0,0
�����w�O,��������,2022/9/12,2:00,0,0
�����w�O,��������,2022/9/12,3:00,0,0
�����w�O,��������,2022/9/12,4:00,0,0
�����w�O,��������,2022/9/12,5:00,0,0
�����w�O,��������,2022/9/12,6:00,0,0
�����w�O,��������,2022/9/12,7:00,0,0
�����w�O,��������,2022/9/12,8:00,0,0
�����w�O,��������,2022/9/12,9:00,0,0
�����w�O,��������,2022/9/12,10:00,0,0
�����w�O,��������,2022/9/12,11:00,0,0
�����w�O,��������,2022/9/12,12:00,145,212
�����w�O,��������,2022/9/12,13:00,242,204
�����w�O,��������,2022/9/12,14:00,198,180
�����w�O,��������,2022/9/12,15:00,312,168
�����w�O,��������,2022/9/12,16:00,289,170
�����w�O,��������,2022/9/12,17:00,301,208
�����w�O,��������,2022/9/12,18:00,304,219
�����w�O,��������,2022/9/12,19:00,206,169
�����w�O,��������,2022/9/12,20:00,99,104
�����w�O,��������,2022/9/12,21:00,132,190
�����w�O,��������,2022/9/12,22:00,96,141
�����w�O,��������,2022/9/12,23:00,20,18
�����w�O,��������,2022/9/13,0:00,8,2
�����w�O,��������,2022/9/13,1:00,3,4
�����w�O,��������,2022/9/13,2:00,1,1
�����w�O,��������,2022/9/13,3:00,2,1
�����w�O,��������,2022/9/13,4:00,5,0
�����w�O,��������,2022/9/13,5:00,12,8
�����w�O,��������,2022/9/13,6:00,75,65
�����w�O,��������,2022/9/13,7:00,188,337
�����w�O,��������,2022/9/13,8:00,146,309
�����w�O,��������,2022/9/13,9:00,120,151
�����w�O,��������,2022/9/13,10:00,163,213
�����w�O,��������,2022/9/13,11:00,224,279
�����w�O,��������,2022/9/13,12:00,200,231
�����w�O,��������,2022/9/13,13:00,165,150
�����w�O,��������,2022/9/13,14:00,161,157
�����w�O,��������,2022/9/13,15:00,227,126
�����w�O,��������,2022/9/13,16:00,301,164
�����w�O,��������,2022/9/13,17:00,318,206
�����w�O,��������,2022/9/13,18:00,320,168
�����w�O,��������,2022/9/13,19:00,173,163
�����w�O,��������,2022/9/13,20:00,111,91
�����w�O,��������,2022/9/13,21:00,90,66
�����w�O,��������,2022/9/13,22:00,50,32
�����w�O,��������,2022/9/13,23:00,10,17
�����w�O,��������,2022/9/14,0:00,5,1
�����w�O,��������,2022/9/14,1:00,4,4
�����w�O,��������,2022/9/14,2:00,0,1
�����w�O,��������,2022/9/14,3:00,0,2
�����w�O,��������,2022/9/14,4:00,4,3
�����w�O,��������,2022/9/14,5:00,14,16
�����w�O,��������,2022/9/14,6:00,75,78
�����w�O,��������,2022/9/14,7:00,195,335
�����w�O,��������,2022/9/14,8:00,103,246
�����w�O,��������,2022/9/14,9:00,226,304
�����w�O,��������,2022/9/14,10:00,185,261
�����w�O,��������,2022/9/14,11:00,201,281
�����w�O,��������,2022/9/14,12:00,227,232
�����w�O,��������,2022/9/14,13:00,169,129
�����w�O,��������,2022/9/14,14:00,203,206
�����w�O,��������,2022/9/14,15:00,278,194
�����w�O,��������,2022/9/14,16:00,310,197
�����w�O,��������,2022/9/14,17:00,350,199
�����w�O,��������,2022/9/14,18:00,287,244
�����w�O,��������,2022/9/14,19:00,218,173
�����w�O,��������,2022/9/14,20:00,217,264
�����w�O,��������,2022/9/14,21:00,94,67
�����w�O,��������,2022/9/14,22:00,52,53
�����w�O,��������,2022/9/14,23:00,9,13
�����w�O,��������,2022/9/15,0:00,9,4
�����w�O,��������,2022/9/15,1:00,6,0
�����w�O,��������,2022/9/15,2:00,1,0
�����w�O,��������,2022/9/15,3:00,1,2
�����w�O,��������,2022/9/15,4:00,4,0
�����w�O,��������,2022/9/15,5:00,10,15
�����w�O,��������,2022/9/15,6:00,79,67
�����w�O,��������,2022/9/15,7:00,187,312
�����w�O,��������,2022/9/15,8:00,97,243
�����w�O,��������,2022/9/15,9:00,129,147
�����w�O,��������,2022/9/15,10:00,169,218
�����w�O,��������,2022/9/15,11:00,177,265
�����w�O,��������,2022/9/15,12:00,158,190
�����w�O,��������,2022/9/15,13:00,180,159
�����w�O,��������,2022/9/15,14:00,198,174
�����w�O,��������,2022/9/15,15:00,256,128
�����w�O,��������,2022/9/15,16:00,303,189
�����w�O,��������,2022/9/15,17:00,294,203
�����w�O,��������,2022/9/15,18:00,307,216
�����w�O,��������,2022/9/15,19:00,220,213
�����w�O,��������,2022/9/15,20:00,116,97
�����w�O,��������,2022/9/15,21:00,82,65
�����w�O,��������,2022/9/15,22:00,37,28
�����w�O,��������,2022/9/15,23:00,16,11
�����w�O,��������,2022/9/16,0:00,5,1
�����w�O,��������,2022/9/16,1:00,4,1
�����w�O,��������,2022/9/16,2:00,4,1
�����w�O,��������,2022/9/16,3:00,0,1
�����w�O,��������,2022/9/16,4:00,5,1
�����w�O,��������,2022/9/16,5:00,12,14
�����w�O,��������,2022/9/16,6:00,68,72
�����w�O,��������,2022/9/16,7:00,208,313
�����w�O,��������,2022/9/16,8:00,147,322
�����w�O,��������,2022/9/16,9:00,150,215
�����w�O,��������,2022/9/16,10:00,169,212
�����w�O,��������,2022/9/16,11:00,179,302
�����w�O,��������,2022/9/16,12:00,209,253
�����w�O,��������,2022/9/16,13:00,190,190
�����w�O,��������,2022/9/16,14:00,230,163
�����w�O,��������,2022/9/16,15:00,280,170
�����w�O,��������,2022/9/16,16:00,307,196
�����w�O,��������,2022/9/16,17:00,348,221
�����w�O,��������,2022/9/16,18:00,364,225
�����w�O,��������,2022/9/16,19:00,206,192
�����w�O,��������,2022/9/16,20:00,144,132
�����w�O,��������,2022/9/16,21:00,159,162
�����w�O,��������,2022/9/16,22:00,240,254
�����w�O,��������,2022/9/16,23:00,21,17
�����w�O,��������,2022/9/17,0:00,18,4
�����w�O,��������,2022/9/17,1:00,7,3
�����w�O,��������,2022/9/17,2:00,4,1
�����w�O,��������,2022/9/17,3:00,0,2
�����w�O,��������,2022/9/17,4:00,5,3
�����w�O,��������,2022/9/17,5:00,21,23
�����w�O,��������,2022/9/17,6:00,55,38
�����w�O,��������,2022/9/17,7:00,95,184
�����w�O,��������,2022/9/17,8:00,127,240
�����w�O,��������,2022/9/17,9:00,215,358
�����w�O,��������,2022/9/17,10:00,296,472
�����w�O,��������,2022/9/17,11:00,344,527
�����w�O,��������,2022/9/17,12:00,353,459
�����w�O,��������,2022/9/17,13:00,408,393
�����w�O,��������,2022/9/17,14:00,355,313
�����w�O,��������,2022/9/17,15:00,341,273
�����w�O,��������,2022/9/17,16:00,410,263
�����w�O,��������,2022/9/17,17:00,358,293
�����w�O,��������,2022/9/17,18:00,361,265
�����w�O,��������,2022/9/17,19:00,281,251
�����w�O,��������,2022/9/17,20:00,146,106
�����w�O,��������,2022/9/17,21:00,129,101
�����w�O,��������,2022/9/17,22:00,94,52
�����w�O,��������,2022/9/17,23:00,32,17
�����w�O,��������,2022/9/18,0:00,25,12
�����w�O,��������,2022/9/18,1:00,3,4
�����w�O,��������,2022/9/18,2:00,1,1
�����w�O,��������,2022/9/18,3:00,2,3
�����w�O,��������,2022/9/18,4:00,3,1
�����w�O,��������,2022/9/18,5:00,7,15
�����w�O,��������,2022/9/18,6:00,40,31
�����w�O,��������,2022/9/18,7:00,67,72
�����w�O,��������,2022/9/18,8:00,101,120
�����w�O,��������,2022/9/18,9:00,181,200
�����w�O,��������,2022/9/18,10:00,296,390
�����w�O,��������,2022/9/18,11:00,331,373
�����w�O,��������,2022/9/18,12:00,325,300
�����w�O,��������,2022/9/18,13:00,435,333
�����w�O,��������,2022/9/18,14:00,305,234
�����w�O,��������,2022/9/18,15:00,270,231
�����w�O,��������,2022/9/18,16:00,271,158
�����w�O,��������,2022/9/18,17:00,154,145
�����w�O,��������,2022/9/18,18:00,83,98
�����w�O,��������,2022/9/18,19:00,93,93
�����w�O,��������,2022/9/18,20:00,47,46
�����w�O,��������,2022/9/18,21:00,41,33
�����w�O,��������,2022/9/18,22:00,38,32
�����w�O,��������,2022/9/18,23:00,13,7
�����w�O,��������,2022/9/19,0:00,15,5
�����w�O,��������,2022/9/19,1:00,6,4
�����w�O,��������,2022/9/19,2:00,0,1
�����w�O,��������,2022/9/19,3:00,0,0
�����w�O,��������,2022/9/19,4:00,2,0
�����w�O,��������,2022/9/19,5:00,14,13
�����w�O,��������,2022/9/19,6:00,18,7
�����w�O,��������,2022/9/19,7:00,19,15
�����w�O,��������,2022/9/19,8:00,30,31
�����w�O,��������,2022/9/19,9:00,29,29
�����w�O,��������,2022/9/19,10:00,37,55
�����w�O,��������,2022/9/19,11:00,33,19
�����w�O,��������,2022/9/19,12:00,30,30
�����w�O,��������,2022/9/19,13:00,21,15
�����w�O,��������,2022/9/19,14:00,25,28
�����w�O,��������,2022/9/19,15:00,21,24
�����w�O,��������,2022/9/19,16:00,31,32
�����w�O,��������,2022/9/19,17:00,39,41
�����w�O,��������,2022/9/19,18:00,27,32
�����w�O,��������,2022/9/19,19:00,19,25
�����w�O,��������,2022/9/19,20:00,5,7
�����w�O,��������,2022/9/19,21:00,7,5
�����w�O,��������,2022/9/19,22:00,6,8
�����w�O,��������,2022/9/19,23:00,1,0
�����w�O,��������,2022/9/20,0:00,5,9
�����w�O,��������,2022/9/20,1:00,3,7
�����w�O,��������,2022/9/20,2:00,0,0
�����w�O,��������,2022/9/20,3:00,0,0
�����w�O,��������,2022/9/20,4:00,3,1
�����w�O,��������,2022/9/20,5:00,9,11
�����w�O,��������,2022/9/20,6:00,68,61
�����w�O,��������,2022/9/20,7:00,153,260
�����w�O,��������,2022/9/20,8:00,114,208
�����w�O,��������,2022/9/20,9:00,120,160
�����w�O,��������,2022/9/20,10:00,188,246
�����w�O,��������,2022/9/20,11:00,161,250
�����w�O,��������,2022/9/20,12:00,164,197
�����w�O,��������,2022/9/20,13:00,150,143
�����w�O,��������,2022/9/20,14:00,168,175
�����w�O,��������,2022/9/20,15:00,195,166
�����w�O,��������,2022/9/20,16:00,257,180
�����w�O,��������,2022/9/20,17:00,278,180
�����w�O,��������,2022/9/20,18:00,312,266
�����w�O,��������,2022/9/20,19:00,146,135
�����w�O,��������,2022/9/20,20:00,106,88
�����w�O,��������,2022/9/20,21:00,71,69
�����w�O,��������,2022/9/20,22:00,43,26
�����w�O,��������,2022/9/20,23:00,41,37
�����w�O,��������,2022/9/21,0:00,15,8
�����w�O,��������,2022/9/21,1:00,5,3
�����w�O,��������,2022/9/21,2:00,1,3
�����w�O,��������,2022/9/21,3:00,0,1
�����w�O,��������,2022/9/21,4:00,3,1
�����w�O,��������,2022/9/21,5:00,11,14
�����w�O,��������,2022/9/21,6:00,85,60
�����w�O,��������,2022/9/21,7:00,205,345
�����w�O,��������,2022/9/21,8:00,113,288
�����w�O,��������,2022/9/21,9:00,137,162
�����w�O,��������,2022/9/21,10:00,167,265
�����w�O,��������,2022/9/21,11:00,185,253
�����w�O,��������,2022/9/21,12:00,174,221
�����w�O,��������,2022/9/21,13:00,185,167
�����w�O,��������,2022/9/21,14:00,188,187
�����w�O,��������,2022/9/21,15:00,285,169
�����w�O,��������,2022/9/21,16:00,418,337
�����w�O,��������,2022/9/21,17:00,443,415
�����w�O,��������,2022/9/21,18:00,284,241
�����w�O,��������,2022/9/21,19:00,206,196
�����w�O,��������,2022/9/21,20:00,171,110
�����w�O,��������,2022/9/21,21:00,104,68
�����w�O,��������,2022/9/21,22:00,48,24
�����w�O,��������,2022/9/21,23:00,21,19
�����w�O,��������,2022/9/22,0:00,7,5
�����w�O,��������,2022/9/22,1:00,1,2
�����w�O,��������,2022/9/22,2:00,1,4
�����w�O,��������,2022/9/22,3:00,2,1
�����w�O,��������,2022/9/22,4:00,3,2
�����w�O,��������,2022/9/22,5:00,13,15
�����w�O,��������,2022/9/22,6:00,89,59
�����w�O,��������,2022/9/22,7:00,200,312
�����w�O,��������,2022/9/22,8:00,154,293
�����w�O,��������,2022/9/22,9:00,164,236
�����w�O,��������,2022/9/22,10:00,235,285
�����w�O,��������,2022/9/22,11:00,210,324
�����w�O,��������,2022/9/22,12:00,240,267
�����w�O,��������,2022/9/22,13:00,221,167
�����w�O,��������,2022/9/22,14:00,204,210
�����w�O,��������,2022/9/22,15:00,318,180
�����w�O,��������,2022/9/22,16:00,343,237
�����w�O,��������,2022/9/22,17:00,360,235
�����w�O,��������,2022/9/22,18:00,306,216
�����w�O,��������,2022/9/22,19:00,162,186
�����w�O,��������,2022/9/22,20:00,155,147
�����w�O,��������,2022/9/22,21:00,91,64
�����w�O,��������,2022/9/22,22:00,67,46
�����w�O,��������,2022/9/22,23:00,35,16
�����w�O,��������,2022/9/23,0:00,9,6
�����w�O,��������,2022/9/23,1:00,1,1
�����w�O,��������,2022/9/23,2:00,3,0
�����w�O,��������,2022/9/23,3:00,4,3
�����w�O,��������,2022/9/23,4:00,3,0
�����w�O,��������,2022/9/23,5:00,16,13
�����w�O,��������,2022/9/23,6:00,41,44
�����w�O,��������,2022/9/23,7:00,106,158
�����w�O,��������,2022/9/23,8:00,174,324
�����w�O,��������,2022/9/23,9:00,294,428
�����w�O,��������,2022/9/23,10:00,443,846
�����w�O,��������,2022/9/23,11:00,367,669
�����w�O,��������,2022/9/23,12:00,385,665
�����w�O,��������,2022/9/23,13:00,532,470
�����w�O,��������,2022/9/23,14:00,561,392
�����w�O,��������,2022/9/23,15:00,486,323
�����w�O,��������,2022/9/23,16:00,429,297
�����w�O,��������,2022/9/23,17:00,508,349
�����w�O,��������,2022/9/23,18:00,318,278
�����w�O,��������,2022/9/23,19:00,247,249
�����w�O,��������,2022/9/23,20:00,192,146
�����w�O,��������,2022/9/23,21:00,132,109
�����w�O,��������,2022/9/23,22:00,74,60
�����w�O,��������,2022/9/23,23:00,53,36
�����w�O,��������,2022/9/24,0:00,8,2
�����w�O,��������,2022/9/24,1:00,2,3
�����w�O,��������,2022/9/24,2:00,3,1
�����w�O,��������,2022/9/24,3:00,1,3
�����w�O,��������,2022/9/24,4:00,4,4
�����w�O,��������,2022/9/24,5:00,8,14
�����w�O,��������,2022/9/24,6:00,58,59
�����w�O,��������,2022/9/24,7:00,118,173
�����w�O,��������,2022/9/24,8:00,168,255
�����w�O,��������,2022/9/24,9:00,256,414
�����w�O,��������,2022/9/24,10:00,357,612
�����w�O,��������,2022/9/24,11:00,356,603
�����w�O,��������,2022/9/24,12:00,455,589
�����w�O,��������,2022/9/24,13:00,464,414
�����w�O,��������,2022/9/24,14:00,508,431
�����w�O,��������,2022/9/24,15:00,571,393
�����w�O,��������,2022/9/24,16:00,624,390
�����w�O,��������,2022/9/24,17:00,572,409
�����w�O,��������,2022/9/24,18:00,521,411
�����w�O,��������,2022/9/24,19:00,328,369
�����w�O,��������,2022/9/24,20:00,255,175
�����w�O,��������,2022/9/24,21:00,212,138
�����w�O,��������,2022/9/24,22:00,89,51
�����w�O,��������,2022/9/24,23:00,47,24
�����w�O,��������,2022/9/25,0:00,16,18
�����w�O,��������,2022/9/25,1:00,5,1
�����w�O,��������,2022/9/25,2:00,3,0
�����w�O,��������,2022/9/25,3:00,0,3
�����w�O,��������,2022/9/25,4:00,10,1
�����w�O,��������,2022/9/25,5:00,15,16
�����w�O,��������,2022/9/25,6:00,49,41
�����w�O,��������,2022/9/25,7:00,94,138
�����w�O,��������,2022/9/25,8:00,136,207
�����w�O,��������,2022/9/25,9:00,247,408